| time (UTC) | temp F | wind direction | speed MPH | gust MPH | rain 1hr in | rain 24hr in | rain mn in | humidity % | barometer mb |
| 20260507075401 | 55 | 49 | 2.0 | 4.0 | 0.00 | 0.04 | 0.00 | 82 | 1017.0 |
| 20260507074401 | 55 | 34 | 2.0 | 5.0 | 0.00 | 0.04 | 0.00 | 82 | 1016.9 |
| 20260507073401 | 56 | 31 | 1.0 | 6.0 | 0.00 | 0.04 | 0.00 | 82 | 1016.9 |
| 20260507072401 | 56 | 44 | 2.0 | 4.0 | 0.00 | 0.04 | 0.00 | 81 | 1016.9 |
| 20260507071401 | 56 | 44 | 3.0 | 5.0 | 0.00 | 0.04 | 0.00 | 81 | 1016.7 |
| 20260507070401 | 56 | 32 | 2.0 | 4.0 | 0.00 | 0.07 | 0.00 | 81 | 1016.8 |
| 20260507065401 | 56 | 42 | 2.0 | 6.0 | 0.00 | 0.07 | 0.00 | 80 | 1016.8 |
| 20260507064359 | 56 | 35 | 0.0 | 4.0 | 0.00 | 0.07 | 0.00 | 80 | 1016.9 |
| 20260507063357 | 56 | 39 | 2.0 | 4.0 | 0.00 | 0.07 | 0.00 | 80 | 1016.8 |
| 20260507062357 | 57 | 47 | 2.0 | 3.0 | 0.00 | 0.07 | 0.00 | 80 | 1016.7 |
| 20260507061355 | 57 | 48 | 2.0 | 4.0 | 0.00 | 0.07 | 0.00 | 79 | 1016.4 |
| 20260507060353 | 57 | 21 | 1.0 | 2.0 | 0.00 | 0.07 | 0.00 | 78 | 1016.4 |
| 20260507055353 | 57 | 49 | 0.0 | 2.0 | 0.00 | 0.07 | 0.00 | 78 | 1016.5 |
| 20260507054352 | 57 | 42 | 0.0 | 2.0 | 0.00 | 0.07 | 0.00 | 78 | 1016.5 |
| 20260507053349 | 57 | 65 | 0.0 | 3.0 | 0.00 | 0.07 | 0.00 | 77 | 1016.3 |
| 20260507052825 | 58 | 62 | 2.0 | 5.0 | 0.00 | 0.07 | 0.00 | 76 | 1016.3 |
| 20260507051347 | 58 | 80 | 2.0 | 4.0 | 0.00 | 0.07 | 0.00 | 76 | 1016.4 |
| 20260507050345 | 58 | 71 | 1.0 | 3.0 | 0.00 | 0.07 | 0.00 | 75 | 1016.3 |
| 20260507045346 | 58 | 71 | 2.0 | 4.0 | 0.00 | 0.07 | 0.07 | 75 | 1016.4 |
| 20260507044342 | 58 | 83 | 1.0 | 5.0 | 0.00 | 0.07 | 0.07 | 75 | 1016.5 |
| 20260507043341 | 58 | 65 | 1.0 | 5.0 | 0.00 | 0.07 | 0.07 | 74 | 1016.5 |
| 20260507042342 | 58 | 58 | 2.0 | 3.0 | 0.00 | 0.07 | 0.07 | 73 | 1016.6 |
| 20260507042259 | 59 | 61 | 1.0 | 6.0 | 0.00 | 0.07 | 0.07 | 73 | 1016.7 |
| 20260507040816 | 59 | 31 | 2.0 | 11.0 | 0.00 | 0.07 | 0.07 | 72 | 1016.7 |
| 20260507035337 | 59 | 55 | 1.0 | 7.0 | 0.00 | 0.07 | 0.07 | 72 | 1016.7 |
| 20260507034810 | 60 | 44 | 3.0 | 10.0 | 0.00 | 0.07 | 0.07 | 72 | 1016.8 |
| 20260507033333 | 60 | 58 | 3.0 | 7.0 | 0.00 | 0.07 | 0.07 | 72 | 1016.8 |
| 20260507032333 | 60 | 52 | 2.0 | 12.0 | 0.00 | 0.07 | 0.07 | 73 | 1016.8 |
| 20260507031331 | 60 | 28 | 5.0 | 11.0 | 0.00 | 0.07 | 0.07 | 73 | 1016.8 |
| 20260507030329 | 60 | 10 | 6.0 | 13.0 | 0.00 | 0.07 | 0.07 | 72 | 1016.6 |
| 20260507025329 | 60 | 51 | 9.0 | 16.0 | 0.00 | 0.07 | 0.07 | 72 | 1016.3 |
| 20260507024328 | 60 | 41 | 6.0 | 14.0 | 0.00 | 0.07 | 0.07 | 72 | 1016.2 |
| 20260507023325 | 60 | 41 | 8.0 | 16.0 | 0.00 | 0.07 | 0.07 | 71 | 1016.1 |
| 20260507022326 | 61 | 30 | 9.0 | 18.0 | 0.00 | 0.07 | 0.07 | 72 | 1015.9 |
| 20260507021810 | 61 | 34 | 4.0 | 10.0 | 0.00 | 0.07 | 0.07 | 72 | 1015.6 |
| 20260507020320 | 62 | 71 | 3.0 | 11.0 | 0.00 | 0.07 | 0.07 | 72 | 1015.4 |
| 20260507015321 | 62 | 89 | 4.0 | 10.0 | 0.00 | 0.07 | 0.07 | 72 | 1015.3 |
| 20260507014319 | 62 | 59 | 4.0 | 11.0 | 0.00 | 0.07 | 0.07 | 72 | 1014.8 |
| 20260507013317 | 62 | 49 | 4.0 | 11.0 | 0.00 | 0.07 | 0.07 | 71 | 1014.6 |
| 20260507012753 | 62 | 35 | 8.0 | 12.0 | 0.00 | 0.07 | 0.07 | 71 | 1014.4 |
| 20260507011806 | 62 | 61 | 3.0 | 11.0 | 0.00 | 0.07 | 0.07 | 72 | 1014.2 |
| 20260507010319 | 62 | 38 | 4.0 | 9.0 | 0.00 | 0.07 | 0.07 | 72 | 1014.0 |
| 20260507005318 | 62 | 38 | 3.0 | 9.0 | 0.00 | 0.07 | 0.07 | 72 | 1014.0 |
| 20260507004319 | 62 | 49 | 4.0 | 10.0 | 0.00 | 0.07 | 0.07 | 71 | 1013.8 |
| 20260507003319 | 62 | 45 | 5.0 | 11.0 | 0.00 | 0.07 | 0.07 | 71 | 1013.9 |
| 20260507002319 | 63 | 28 | 7.0 | 14.0 | 0.00 | 0.07 | 0.07 | 70 | 1013.7 |
| 20260507001645 | 63 | 38 | 9.0 | 14.0 | 0.00 | 0.07 | 0.07 | 70 | 1013.3 |
| 20260507001423 | 63 | 42 | 7.0 | 13.0 | 0.00 | 0.07 | 0.07 | 71 | 1013.7 |
| 20260507000454 | 63 | 47 | 8.0 | 11.0 | 0.00 | 0.07 | 0.07 | 70 | 1013.5 |
| 20260506234319 | 64 | 34 | 4.0 | 11.0 | 0.00 | 0.07 | 0.07 | 71 | 1013.2 |
| 20260506233319 | 64 | 47 | 7.0 | 11.0 | 0.00 | 0.07 | 0.07 | 70 | 1013.1 |
| 20260506232319 | 64 | 35 | 4.0 | 12.0 | 0.00 | 0.07 | 0.07 | 71 | 1013.0 |
| 20260506231319 | 64 | 28 | 5.0 | 11.0 | 0.00 | 0.07 | 0.07 | 70 | 1013.0 |
| 20260506230319 | 64 | 48 | 5.0 | 12.0 | 0.00 | 0.07 | 0.07 | 71 | 1012.9 |
| 20260506225318 | 65 | 44 | 8.0 | 14.0 | 0.00 | 0.07 | 0.07 | 69 | 1012.9 |
| 20260506224319 | 65 | 34 | 4.0 | 12.0 | 0.00 | 0.07 | 0.07 | 71 | 1012.8 |
| 20260506223320 | 64 | 45 | 8.0 | 12.0 | 0.00 | 0.07 | 0.07 | 70 | 1012.9 |
| 20260506222319 | 65 | 27 | 5.0 | 10.0 | 0.00 | 0.07 | 0.07 | 69 | 1012.6 |
| 20260506221318 | 65 | 44 | 4.0 | 11.0 | 0.00 | 0.07 | 0.07 | 69 | 1012.8 |
| 20260506220318 | 65 | 23 | 6.0 | 14.0 | 0.00 | 0.07 | 0.07 | 68 | 1012.8 |
| 20260506215314 | 65 | 85 | 3.0 | 15.0 | 0.00 | 0.07 | 0.07 | 70 | 1012.9 |
| 20260506214312 | 64 | 37 | 5.0 | 11.0 | 0.00 | 0.07 | 0.07 | 69 | 1012.7 |
| 20260506213312 | 62 | 49 | 4.0 | 10.0 | 0.00 | 0.07 | 0.07 | 72 | 1012.8 |
| 20260506212310 | 62 | 28 | 4.0 | 10.0 | 0.00 | 0.07 | 0.07 | 73 | 1013.1 |
| 20260506211308 | 61 | 42 | 3.0 | 7.0 | 0.00 | 0.07 | 0.07 | 73 | 1013.2 |
| 20260506210308 | 61 | 45 | 4.0 | 11.0 | 0.00 | 0.07 | 0.07 | 72 | 1013.0 |
| 20260506205306 | 62 | 47 | 5.0 | 10.0 | 0.00 | 0.07 | 0.07 | 71 | 1013.1 |
| 20260506204303 | 61 | 54 | 5.0 | 9.0 | 0.00 | 0.07 | 0.07 | 72 | 1012.9 |
| 20260506203302 | 61 | 45 | 4.0 | 9.0 | 0.00 | 0.07 | 0.07 | 74 | 1013.3 |
| 20260506202305 | 61 | 68 | 6.0 | 13.0 | 0.00 | 0.07 | 0.07 | 74 | 1013.4 |
| 20260506201748 | 61 | 24 | 7.0 | 11.0 | 0.00 | 0.07 | 0.07 | 72 | 1013.4 |
| 20260506200301 | 60 | 49 | 3.0 | 10.0 | 0.00 | 0.07 | 0.07 | 74 | 1013.7 |
| 20260506195300 | 59 | 45 | 3.0 | 9.0 | 0.00 | 0.07 | 0.07 | 73 | 1014.0 |
| 20260506194301 | 59 | 49 | 0.0 | 7.0 | 0.00 | 0.07 | 0.07 | 73 | 1014.2 |
| 20260506193301 | 59 | 41 | 2.0 | 7.0 | 0.00 | 0.07 | 0.07 | 74 | 1014.2 |
| 20260506192738 | 58 | 52 | 5.0 | 9.0 | 0.00 | 0.07 | 0.07 | 75 | 1014.1 |
| 20260506191302 | 58 | 45 | 4.0 | 9.0 | 0.00 | 0.07 | 0.07 | 75 | 1014.4 |
| 20260506190301 | 58 | 21 | 4.0 | 10.0 | 0.00 | 0.07 | 0.07 | 75 | 1014.2 |
| 20260506185301 | 58 | 25 | 4.0 | 12.0 | 0.00 | 0.07 | 0.07 | 74 | 1014.1 |
| 20260506184302 | 58 | 42 | 6.0 | 16.0 | 0.00 | 0.07 | 0.07 | 75 | 1013.7 |
| 20260506183301 | 58 | 32 | 10.0 | 14.0 | 0.00 | 0.07 | 0.07 | 74 | 1012.8 |
| 20260506182737 | 58 | 351 | 9.0 | 16.0 | 0.00 | 0.07 | 0.07 | 76 | 1013.1 |
| 20260506181302 | 57 | 31 | 9.0 | 15.0 | 0.00 | 0.07 | 0.07 | 76 | 1013.0 |
| 20260506180301 | 57 | 48 | 5.0 | 15.0 | 0.00 | 0.07 | 0.07 | 77 | 1013.6 |
| 20260506175737 | 57 | 59 | 9.0 | 14.0 | 0.00 | 0.07 | 0.07 | 77 | 1013.6 |
| 20260506174301 | 56 | 32 | 6.0 | 12.0 | 0.00 | 0.07 | 0.07 | 79 | 1013.5 |
| 20260506173302 | 55 | 76 | 2.0 | 16.0 | 0.00 | 0.07 | 0.07 | 81 | 1013.6 |
| 20260506172306 | 55 | 58 | 9.0 | 14.0 | 0.00 | 0.07 | 0.07 | 80 | 1013.3 |
| 20260506171301 | 55 | 124 | 9.0 | 16.0 | 0.00 | 0.07 | 0.07 | 81 | 1013.5 |
| 20260506170301 | 55 | 39 | 8.0 | 12.0 | 0.00 | 0.07 | 0.07 | 82 | 1013.7 |
| 20260506165305 | 55 | 49 | 6.0 | 14.0 | 0.00 | 0.07 | 0.07 | 84 | 1014.0 |
| 20260506164302 | 54 | 76 | 5.0 | 11.0 | 0.00 | 0.07 | 0.07 | 83 | 1014.2 |
| 20260506163301 | 54 | 30 | 6.0 | 11.0 | 0.00 | 0.07 | 0.07 | 85 | 1014.2 |
| 20260506162301 | 54 | 35 | 3.0 | 9.0 | 0.02 | 0.07 | 0.07 | 85 | 1014.6 |
| 20260506161301 | 54 | 39 | 5.0 | 16.0 | 0.03 | 0.07 | 0.07 | 84 | 1014.0 |
| 20260506160745 | 54 | 27 | 10.0 | 17.0 | 0.04 | 0.07 | 0.07 | 84 | 1013.2 |
| 20260506155305 | 54 | 37 | 5.0 | 12.0 | 0.04 | 0.03 | 0.07 | 86 | 1013.7 |
| 20260506154301 | 53 | 49 | 2.0 | 12.0 | 0.04 | 0.03 | 0.07 | 87 | 1013.3 |
| 20260506153737 | 53 | 30 | 3.0 | 12.0 | 0.04 | 0.03 | 0.07 | 87 | 1014.2 |
| 20260506152301 | 53 | 54 | 8.0 | 11.0 | 0.02 | 0.03 | 0.05 | 85 | 1014.3 |
| 20260506151737 | 53 | 303 | 1.0 | 9.0 | 0.01 | 0.03 | 0.04 | 83 | 1015.7 |
| 20260506150253 | 53 | 48 | 5.0 | 7.0 | 0.00 | 0.03 | 0.03 | 82 | 1015.2 |
| 20260506145726 | 53 | 51 | 4.0 | 12.0 | 0.00 | 0.03 | 0.03 | 82 | 1015.3 |
| 20260506144243 | 53 | 54 | 2.0 | 15.0 | 0.00 | 0.03 | 0.03 | 82 | 1013.9 |
| 20260506143238 | 53 | 41 | 4.0 | 14.0 | 0.00 | 0.03 | 0.03 | 82 | 1013.2 |
| 20260506142236 | 53 | 38 | 4.0 | 10.0 | 0.00 | 0.03 | 0.03 | 82 | 1014.9 |
| 20260506141236 | 53 | 334 | 6.0 | 12.0 | 0.00 | 0.03 | 0.03 | 82 | 1014.3 |
| 20260506140234 | 53 | 49 | 7.0 | 14.0 | 0.00 | 0.03 | 0.03 | 82 | 1013.9 |
| 20260506135232 | 53 | 58 | 5.0 | 12.0 | 0.00 | 0.03 | 0.03 | 82 | 1013.6 |
| 20260506134229 | 53 | 31 | 8.0 | 13.0 | 0.00 | 0.03 | 0.03 | 82 | 1013.4 |
| 20260506133230 | 53 | 18 | 7.0 | 12.0 | 0.00 | 0.03 | 0.03 | 82 | 1013.0 |
| 20260506132706 | 53 | 42 | 6.0 | 13.0 | 0.00 | 0.03 | 0.03 | 82 | 1013.2 |
| 20260506131229 | 53 | 59 | 6.0 | 14.0 | 0.00 | 0.03 | 0.03 | 82 | 1012.8 |
| 20260506130704 | 53 | 42 | 9.0 | 13.0 | 0.00 | 0.03 | 0.03 | 82 | 1012.8 |
| 20260506125222 | 53 | 41 | 7.0 | 16.0 | 0.00 | 0.03 | 0.03 | 82 | 1012.6 |
| 20260506124217 | 53 | 18 | 5.0 | 12.0 | 0.00 | 0.03 | 0.03 | 81 | 1012.6 |
| 20260506123217 | 53 | 69 | 6.0 | 14.0 | 0.00 | 0.03 | 0.03 | 81 | 1012.5 |
| 20260506122659 | 53 | 16 | 4.0 | 14.0 | 0.00 | 0.03 | 0.03 | 81 | 1012.5 |
| 20260506121216 | 53 | 32 | 8.0 | 14.0 | 0.00 | 0.03 | 0.03 | 80 | 1012.5 |
| 20260506120217 | 53 | 51 | 8.0 | 15.0 | 0.00 | 0.03 | 0.03 | 79 | 1012.4 |
| 20260506115216 | 54 | 55 | 8.0 | 13.0 | 0.00 | 0.03 | 0.03 | 78 | 1012.1 |
| 20260506114217 | 54 | 38 | 8.0 | 14.0 | 0.00 | 0.03 | 0.03 | 76 | 1011.9 |
| 20260506113216 | 55 | 47 | 5.0 | 13.0 | 0.00 | 0.03 | 0.03 | 75 | 1011.9 |
| 20260506112218 | 55 | 30 | 8.0 | 13.0 | 0.00 | 0.03 | 0.03 | 75 | 1011.6 |
| 20260506111219 | 55 | 351 | 7.0 | 16.0 | 0.00 | 0.03 | 0.03 | 75 | 1011.5 |
| 20260506110218 | 55 | 48 | 7.0 | 12.0 | 0.00 | 0.03 | 0.03 | 75 | 1011.3 |
| 20260506105218 | 56 | 49 | 7.0 | 12.0 | 0.00 | 0.03 | 0.03 | 75 | 1011.2 |
| 20260506104217 | 56 | 34 | 7.0 | 14.0 | 0.00 | 0.03 | 0.03 | 75 | 1011.0 |
| 20260506103218 | 56 | 37 | 8.0 | 12.0 | 0.00 | 0.03 | 0.03 | 75 | 1011.0 |
| 20260506102218 | 56 | 35 | 5.0 | 12.0 | 0.00 | 0.03 | 0.03 | 75 | 1010.8 |
| 20260506101218 | 56 | 28 | 5.0 | 13.0 | 0.00 | 0.03 | 0.03 | 75 | 1010.5 |
| 20260506100217 | 56 | 58 | 8.0 | 13.0 | 0.00 | 0.03 | 0.03 | 74 | 1010.3 |
| 20260506095218 | 56 | 44 | 7.0 | 13.0 | 0.00 | 0.03 | 0.03 | 75 | 1010.2 |
| 20260506094659 | 56 | 28 | 7.0 | 13.0 | 0.00 | 0.03 | 0.03 | 75 | 1010.2 |
| 20260506093217 | 56 | 47 | 9.0 | 14.0 | 0.00 | 0.03 | 0.03 | 75 | 1010.0 |
| 20260506092217 | 57 | 45 | 5.0 | 12.0 | 0.00 | 0.03 | 0.03 | 76 | 1010.1 |
| 20260506091217 | 57 | 38 | 6.0 | 11.0 | 0.00 | 0.03 | 0.03 | 76 | 1009.9 |
| 20260506090703 | 57 | 3 | 5.0 | 10.0 | 0.00 | 0.03 | 0.03 | 77 | 1009.9 |
| 20260506085217 | 57 | 25 | 4.0 | 12.0 | 0.00 | 0.03 | 0.03 | 77 | 1009.8 |
| 20260506084218 | 57 | 37 | 7.0 | 12.0 | 0.00 | 0.03 | 0.03 | 76 | 1009.6 |
| 20260506083218 | 57 | 55 | 6.0 | 12.0 | 0.00 | 0.03 | 0.03 | 77 | 1009.5 |
| 20260506082218 | 58 | 41 | 4.0 | 9.0 | 0.00 | 0.03 | 0.03 | 78 | 1009.6 |
| 20260506081218 | 57 | 55 | 4.0 | 10.0 | 0.00 | 0.03 | 0.03 | 78 | 1009.5 |
| 20260506080219 | 58 | 61 | 4.0 | 9.0 | 0.03 | 0.03 | 0.03 | 78 | 1009.5 |